Location: Poughquag
(41.6090°N, 73.6820°W)
Time: 08:35:33
(UTC-05:00)

SR - Pass Details

Date: 09 December 2023
Orbit: 574 x 868 km, 66.7° (Epoch: 25 February)

Event Time Altitude Azimuth Distance (km) Brightness Sun altitude
Rises 11:38:31 0° 250° (WSW) 3,309 ? 25.5°
Reaches altitude 10° 11:41:24 10° 265° (W) 2,424 ? 25.5°
Maximum altitude 11:45:49 23° 317° (NW) 1,733 ? 25.6°
Drops below altitude 10° 11:50:23 10° 8° (N) 2,514 ? 25.5°
Sets 11:53:27 0° 23° (NNE) 3,462 ? 25.5°
